Flag for U.S.A. Weather past 2 weeks in Pasadena, Texas, U.S.A.

Now
70 °F

Passing clouds.


Feels Like: 70 °F
Forecast: 62 / 81 °F
Wind: 1 mph from Southeast

Location: Houston / Ellington

Current Time: Oct 20, 2014 at 11:43:22 PM

Latest Report: Oct 20, 2014 at 10:50 PM


Visibility: 10 mi

Pressure: 30.04 "Hg

Humidity: 69%

Dew point: 59 °F

Location of PasadenaLocation

Historic Weather in Pasadena — Graph

°F

Pasadena temperature yesterday

Maximum temperature yesterday: 77 °F (at 12:50 PM)
Minimum temperature yesterday: 66 °F (at 7:50 AM)
Average temperature yesterday: 73 °F

Past Weeks' High & Low Weather Summary

 TemperatureHumidityPressure
High90 °F (Oct 8, 12:50 PM)100% (Oct 6, 11:50 AM)30.13 "Hg (Oct 6, 11:50 AM)
Low57 °F (Oct 14, 5:50 AM)28% (Oct 15, 5:50 PM)29.72 "Hg (Oct 13, 7:50 AM)
Average75 °F74%29.98 "Hg
* Reported Oct 5 9:50 PM — Oct 20 9:50 PM, Pasadena, Weather by CustomWeather, © 2014

Note: Actual official high and low records may vary slightly from our data, if they occured in-between our weather recording intervals... More about our weather records

Advertising

Pasadena weather history for previous 24 hours

 ConditionsComfort  
Time TempWeatherWind HumidityBarometerVisibility
9:50 PM
Oct 20
72 °FPassing clouds.3 mph73%30.03 "Hg10 mi
8:50 PM73 °FPassing clouds.5 mph69%30.01 "Hg10 mi
7:50 PM75 °FPassing clouds.5 mph65%30.00 "Hg10 mi
5:50 PM79 °FScattered clouds.5 mph54%30.00 "Hg10 mi
4:50 PM79 °FScattered clouds.6 mph54%30.00 "Hg10 mi
3:50 PM79 °FScattered clouds.5 mph54%30.00 "Hg10 mi
2:50 PM79 °FScattered clouds.3 mph61%30.00 "Hg10 mi
1:50 PM79 °FScattered clouds.3 mph61%30.03 "Hg10 mi
12:50 PM77 °FScattered clouds.7 mph61%30.06 "Hg10 mi
11:50 AM77 °FScattered clouds.6 mph61%30.08 "Hg10 mi
10:50 AM73 °FPassing clouds.5 mph69%30.08 "Hg10 mi
9:50 AM70 °FPassing clouds.6 mph78%30.08 "Hg10 mi
8:50 AM68 °FScattered clouds.6 mph88%30.06 "Hg10 mi
7:50 AM64 °FPassing clouds.3 mph94%30.03 "Hg10 mi
6:50 AM66 °FPartly cloudy.6 mph88%30.02 "Hg7 mi
5:50 AM66 °FPassing clouds.No wind88%30.00 "Hg7 mi
4:50 AM66 °FPassing clouds.No wind88%30.00 "Hg7 mi
3:50 AM86 °FPassing clouds.No wind52%30.00 "Hg7 mi
2:50 AM68 °FPassing clouds.No wind94%30.03 "Hg7 mi
1:50 AM68 °FPassing clouds.No wind94%30.04 "Hg7 mi
12:50 AM68 °FPassing clouds.3 mph94%30.04 "Hg7 mi
11:50 PM
Oct 19
70 °FPassing clouds.No wind88%30.05 "Hg10 mi
Weather by CustomWeather, © 2014

See weather overviewHow to use our weather pages